Regional Weather Roundup
Issued by NWS

Home | Current Version | Previous Version | Text Only | Print | Product List | Glossary Off
Versions: 1 2 3 4 5 6 7 8 9 10 11 12 13 14 15 16 17 18 19 20 21 22 23 24 25 26 27

000
ASUS45 KBOU 232306
RWRCO

WEATHER ROUNDUP FOR COLORADO
NATIONAL WEATHER SERVICE DENVER/BOULDER CO
500 PM MDT WED APR 23 2014

NOTE: "FAIR" INDICATES FEW OR NO CLOUDS BELOW 12000 FEET WITH NO
SIGNIFICANT WEATHER AND/OR OBSTRUCTIONS TO VISIBILITY.

COZ001>005-013-030-031-240000-
...NORTHWEST COLORADO...

CITY           SKY/WX    TMP DP  RH WIND       PRES   REMARKS
CRAIG          CLOUDY    49  21  33 W15G23    29.90F
HAYDEN         CLOUDY    45  21  39 W9        29.93R
MEEKER         CLOUDY    51  13  21 NW14      29.91R
MOUNT WERNER   CLOUDY   N/A N/A N/A W20G25    29.95R
STEAMBOAT SPGS CLOUDY    42  20  40 W13G20    29.90R
WALDEN         CLOUDY    37  21  52 W16       29.88R
$$

COZ006>008-011-240000-
...WEST CENTRAL VALLEYS...

CITY           SKY/WX    TMP DP  RH WIND       PRES   REMARKS
GRAND JUNCTION PTSUNNY   56   5  13 W23G29    29.87S
MONTROSE       CLOUDY    56  16  20 NW13      29.88R
EAGLE          CLOUDY    54  18  24 W18G25    29.86R
RIFLE          CLOUDY    53  22  29 NW18G30   29.86R
DELTA          NOT AVBL
NUCLA          NOT AVBL
$$

COZ017>023-064>068-240000-
...SOUTHWEST COLORADO...

CITY           SKY/WX    TMP DP  RH WIND       PRES   REMARKS
DURANGO        CLOUDY    54   5  14 W25G37    29.88R
CORTEZ         PTSUNNY   60  13  15 W22G29    29.88F
PAGOSA SPRINGS CLOUDY    51  10  19 SW16G23   29.89R
TELLURIDE      CLOUDY    39  18  41 W14G24    29.95S
WOLF CREEK PAS CLOUDY    28  10  47 W30G49    29.97S WCI  13
$$

COZ009-010-012-014-032>034-037-058>063-240000-
...CENTRAL COLORADO...

CITY           SKY/WX    TMP DP  RH WIND       PRES   REMARKS
ASPEN          CLOUDY    46  20  35 SW12G18   29.88R
BUENA VISTA    CLOUDY    48  19  31 W32G38    29.78S
COPPER MTN     CLOUDY    34  21  60 W22G32    29.94R WCI  22
BERTHOUD PASS  HAZE      23  14  68 N12       29.94F VSB<1/4 WCI  12
COTTONWOOD PAS CLOUDY    41  19  42 W28G39    29.86F
GUNNISON       CLOUDY    46  16  29 W12G23    29.92R
KREMMLING      CLOUDY    43  25  49 NW17      29.88R
LEADVILLE      CLOUDY    35  19  52 NW21G33   29.88R WCI  24
MONARCH PASS   LGT SNOW  27  21  80 W29G38    30.05S VSB 1   WCI  11
SALIDA         CLOUDY    50  26  39 W26G37    29.89R
SUNLIGHT       CLOUDY    34  21  60 CALM      29.97R
WILKERSON PASS CLOUDY    41  14  33 SW12G21   29.90S
$$

COZ069>075-240000-
...SAN LUIS VALLEY/SANGRE DE CRISTO MOUNTAINS...

CITY           SKY/WX    TMP DP  RH WIND       PRES   REMARKS
ALAMOSA        PTSUNNY   56  18  22 SW26G37   29.79R
LA VETA PASS   MOSUNNY   43  18  36 W12G23    29.84R
SAGUACHE       CLOUDY    52  25  35 NW26G37   29.83R
$$

COZ035-036-038>040-240000-
...NORTHERN COLORADO FRONT RANGE...

CITY           SKY/WX    TMP DP  RH WIND       PRES   REMARKS
DENVER INTL AP CLOUDY    60  32  34 NE26G33   29.62R
DMNS CITY PARK   N/A     65  26  23 NE16      29.59S
AURORA         PTSUNNY   64  32  29 NE23G32   29.62R
FRONT RANGE AP PTSUNNY   63  32  31 NE24G37   29.64R
ERIE MUNI ARPT CLOUDY    65  25  21 W13G24    29.60R
BOULDER MUN AP CLOUDY    64  25  22 W18G28    29.59R
CENTENNIAL     CLOUDY    63  32  31 NE14G25   29.60S
BROOMFIELD     PTSUNNY   63  27  25 W13G30    29.60S
FORT COLLINS   CLOUDY    63  28  27 CALM      29.62R
LONGMONT       NOT AVBL
$$

COZ041-046-047-076>085-087-088-240000-
...PIKES PEAK/PALMER DIVIDE AND SOUTHERN FOOTHILLS...

CITY           SKY/WX    TMP DP  RH WIND       PRES   REMARKS
COLO. SPRINGS  CLOUDY    70  16  12 SW9G21    29.61F
A. F. ACADEMY  CLOUDY    66  13  12 S8        29.62F
ELLICOTT       NOT AVBL
FALCON         CLOUDY    66  17  15 S6        29.66S
FORT CARSON    CLOUDY    71  14  11 SW9G22    29.59F
LIMON          CLOUDY    66  34  30 NE30G37   29.58R
MONUMENT HILL  CLOUDY    59  28  31 E10       29.65F
TRINIDAD       MOSUNNY   74  15  10 SW23G35   29.62F
$$

COZ042>045-048>051-090-091-240000-
...NORTHEAST COLORADO...

CITY           SKY/WX    TMP DP  RH WIND       PRES   REMARKS
GREELEY ARPT   CLOUDY    59  30  33 E21G32    29.64R
AKRON          CLOUDY    61  27  27 N29G36    29.65R
BURLINGTON     PTSUNNY   74  38  27 NE21      29.52F
WRAY           MOSUNNY   72  29  20 N23G32    29.57S
STERLING       NOT AVBL
HOLYOKE        NOT AVBL
FORT MORGAN    NOT AVBL
$$

COZ086-089-092>099-240000-
...SOUTHEAST COLORADO...

CITY           SKY/WX    TMP DP  RH WIND       PRES   REMARKS
PUEBLO         CLOUDY    76  16  10 SW17      29.53F
LA JUNTA       PTSUNNY   82  16   8 W29G36    29.49F HAZE
LAMAR          MOSUNNY   84  15   7 W16       29.44F
SPRINGFIELD      N/A     81  12   7 SW28G38   29.52F
$$



USA.gov is the U.S. government's official web portal to all federal, state and local government web resources and services.